This is the latest recevied weather packets stored in our database for station/object OK2ILA-3. If no packets are shown the sender has not sent any weather packets the latest 1 day(s).
| Time | Temp. | Humidity | Pressure | Rain* | Wind** | Luminosity | Snow |
|---|---|---|---|---|---|---|---|
| 1778072562 | 21.11° C | 100% | 1638.4 hPa | 0 mm | - | - | - |
| 1778070138 | 22.22° C | 57% | 4096.5 hPa | 0 mm | - | - | - |
| 1778068320 | 22.22° C | 83% | 5495.4 hPa | 0 mm | - | - | - |
| 1778065891 | 21.67° C | 13% | 1137.6 hPa | 0 mm | - | - | - |
| 1778062857 | 19.44° C | 59% | 96 hPa | 0 mm | - | - | - |
| 1778061044 | 20.56° C | 28% | 2.9 hPa | 0 mm | - | - | - |
| 1778060440 | 21.67° C | 12% | 2.9 hPa | 0 mm | - | - | - |
| 1778059225 | 22.22° C | 67% | 3123.4 hPa | 0 mm | - | - | - |
| 1778058017 | 20.56° C | 65% | 3532.8 hPa | 0 mm | - | - | - |
| 1778055595 | 18.33° C | 3% | 88 hPa | 0 mm | - | - | - |
| 1778054989 | 20° C | 55% | 12.5 hPa | 0 mm | - | - | - |
| 1778053776 | 18.89° C | 28% | 12.8 hPa | 0 mm | - | - | - |
| 1778053171 | 18.89° C | 100% | 12.8 hPa | 0 mm | - | - | - |
| 1778051960 | 18.89° C | 55% | 4352 hPa | 0 mm | - | - | - |
| 1778051355 | 18.33° C | 54% | 4352 hPa | 0 mm | - | - | - |
| 1778050750 | 17.78° C | 86% | 3532.8 hPa | 0 mm | - | - | - |
| 1778048934 | 16.67° C | 12% | 5325.5 hPa | 0 mm | - | - | - |
| 1778046508 | 13.33° C | 2% | 4352 hPa | 0 mm | - | - | - |
| 1778045904 | 12.78° C | 100% | 4352 hPa | 0 mm | - | - | - |
| 1778044691 | 12.78° C | 54% | 2688.2 hPa | 0 mm | - | - | - |
| 1778044086 | 12.22° C | 12% | 5325.5 hPa | 0 mm | - | - | - |
| 1778042875 | 12.22° C | 54% | 5325.5 hPa | 0 mm | - | - | - |
| 1778042270 | 11.67° C | 100% | 5325.5 hPa | 0 mm | - | - | - |
| 1778041664 | 11.67° C | 28% | 0 hPa | 0 mm | - | - | - |
| 1778041059 | 11.67° C | 100% | 14.7 hPa | 0 mm | - | - | - |
* Rain latest 24 hours (hover to see other rain measurements)
** Current wind speed in m/s (hover to see current wind gust speed)